Sulphur Springs, TX

12:40 PM CST on December 10, 2016 (GMT -0600)
Sulphur Springs Municipal

Weather History for KSLR - July, 2013

Change the Weather History Date:

Friday, July 12, 2013

  Actual Average (KGVT) Record (KGVT)
Temperature  
Mean Temperature 84 °F -  
Max Temperature 97 °F 92 °F 102 °F (2011)
Min Temperature 71 °F 74 °F 69 °F (2012)
Cooling Degree Days 19    
Growing Degree Days 34 (Base 50)    
Moisture  
Dew Point 69 °F    
Average Humidity 65    
Maximum Humidity 96    
Minimum Humidity 33    
Precipitation  
Precipitation 0.00 in - - ()
Sea Level Pressure  
Sea Level Pressure 29.98 in    
Wind  
Wind Speed 4 mph (East)    
Max Wind Speed 10 mph    
Max Gust Speed -    
Visibility 9 miles    
Events      
Averages and records for this station are not official NWS values.
T = Trace of Precipitation, MM = Missing Value Source: NWS Daily Summary

Daily Weather History Graph

Daily Weather History Graph

Search for Another Location

Airport or City:

Trip Planner

Search our weather history database for the weather conditions in past years. The results will help you decide how hot, cold, wet, or windy it might be!

Date:

Astronomy

Jul. 12, 2013 Rise Set
Actual Time 6:22 AM CDT 8:33 PM CDT
Civil Twilight 5:54 AM CDT 9:01 PM CDT
Nautical Twilight 5:19 AM CDT 9:35 PM CDT
Astronomical Twilight 4:42 AM CDT 10:13 PM CDT
Moon 10:24 AM CDT (7/12) 11:01 PM CDT (7/12)
Length of Visible Light 15h 07m
Length of Day
14h 10m
Waxing Crescent, 17% of the Moon is Illuminated
Jul 12
Waxing Crescent
Jul 15
First Quarter
Jul 22
Full
Jul 29
Last Quarter
Aug 6
New

Hourly Weather History & Observations

Time (CDT) Temp. Heat Index Dew Point Humidity Pressure Visibility Wind Dir Wind Speed Gust Speed Precip Events Conditions
12:15 AM 74.7 °F - 71.6 °F 90% 29.97 in 10.0 mi Calm Calm - N/A   Clear
12:35 AM 74.3 °F - 71.6 °F 91% 29.97 in 10.0 mi Calm Calm - N/A   Clear
12:55 AM 73.9 °F - 71.6 °F 92% 29.98 in 7.0 mi East 3.5 mph - N/A   Clear
1:15 AM 73.4 °F - 71.2 °F 93% 29.97 in 7.0 mi East 6.9 mph - N/A   Clear
1:35 AM 73.2 °F - 70.9 °F 92% 29.97 in 7.0 mi East 3.5 mph - N/A   Clear
1:55 AM 72.9 °F - 70.7 °F 93% 29.97 in 7.0 mi Calm Calm - N/A   Clear
2:15 AM 72.5 °F - 70.3 °F 93% 29.97 in 5.0 mi East 3.5 mph - N/A   Clear
2:35 AM 72.7 °F - 70.7 °F 93% 29.97 in 5.0 mi Calm Calm - N/A   Clear
2:55 AM 72.7 °F - 70.7 °F 93% 29.96 in 7.0 mi Calm Calm - N/A   Clear
3:15 AM 72.5 °F - 70.7 °F 94% 29.96 in 5.0 mi East 3.5 mph - N/A   Clear
3:35 AM 72.3 °F - 70.5 °F 94% 29.95 in 5.0 mi East 3.5 mph - N/A   Clear
3:55 AM 72.5 °F - 70.7 °F 94% 29.95 in 5.0 mi East 4.6 mph - N/A   Clear
4:15 AM 72.0 °F - 70.3 °F 95% 29.96 in 5.0 mi Calm Calm - N/A   Clear
4:35 AM 71.8 °F - 70.2 °F 95% 29.96 in 5.0 mi Calm Calm - N/A   Clear
4:55 AM 71.6 °F - 70.0 °F 95% 29.96 in 5.0 mi Calm Calm - N/A   Clear
5:15 AM 71.4 °F - 69.8 °F 95% 29.96 in 4.0 mi Calm Calm - N/A   Clear
5:35 AM 71.2 °F - 69.8 °F 95% 29.97 in 4.0 mi East 4.6 mph - N/A   Clear
5:55 AM 71.1 °F - 69.8 °F 96% 29.98 in 4.0 mi East 3.5 mph - N/A   Clear
6:15 AM 71.2 °F - 69.8 °F 95% 29.99 in 3.0 mi East 3.5 mph - N/A   Mist
6:35 AM 71.1 °F - 69.8 °F 96% 30.00 in 3.0 mi East 6.9 mph - N/A   Mist
6:55 AM 71.1 °F - 69.8 °F 96% 30.00 in 4.0 mi East 5.8 mph - N/A   Clear
7:15 AM 71.6 °F - 70.0 °F 95% 30.01 in 7.0 mi East 5.8 mph - N/A   Clear
7:35 AM 72.1 °F - 70.5 °F 95% 30.01 in 7.0 mi ESE 5.8 mph - N/A   Clear
7:55 AM 73.2 °F - 70.5 °F 91% 30.02 in 7.0 mi East 6.9 mph - N/A   Clear
8:15 AM 74.5 °F - 70.5 °F 87% 30.02 in 10.0 mi East 8.1 mph - N/A   Clear
8:35 AM 76.3 °F - 70.2 °F 81% 30.03 in 10.0 mi East 8.1 mph - N/A   Clear
8:55 AM 78.1 °F - 70.0 °F 76% 30.03 in 10.0 mi East 5.8 mph - N/A   Clear
9:15 AM 79.7 °F - 69.8 °F 72% 30.03 in 10.0 mi East 6.9 mph - N/A   Clear
9:35 AM 81.5 °F 85.1 °F 70.2 °F 68% 30.02 in 10.0 mi East 6.9 mph - N/A   Clear
9:55 AM 82.6 °F 86.1 °F 69.4 °F 64% 30.02 in 10.0 mi East 8.1 mph - N/A   Clear
10:15 AM 84.4 °F 88.5 °F 69.4 °F 61% 30.02 in 10.0 mi ESE 8.1 mph - N/A   Clear
10:35 AM 86.2 °F 90.4 °F 69.1 °F 57% 30.02 in 10.0 mi East 8.1 mph - N/A   Clear
10:55 AM 86.2 °F 89.7 °F 68.5 °F 55% 30.02 in 10.0 mi East 8.1 mph - N/A   Clear
11:15 AM 87.4 °F 91.5 °F 69.1 °F 54% 30.02 in 10.0 mi ESE 9.2 mph - N/A   Clear
11:35 AM 88.3 °F 92.8 °F 69.4 °F 53% 30.02 in 10.0 mi East 10.4 mph - N/A   Clear
11:55 AM 89.2 °F 93.6 °F 68.7 °F 51% 30.02 in 10.0 mi ESE 8.1 mph - N/A   Clear
12:15 PM 90.0 °F 94.5 °F 69.3 °F 50% 30.01 in 10.0 mi East 6.9 mph - N/A   Clear
12:35 PM 90.7 °F 95.4 °F 68.9 °F 49% 30.01 in 10.0 mi ESE 8.1 mph - N/A   Clear
12:55 PM 91.4 °F 95.8 °F 68.4 °F 47% 30.00 in 10.0 mi East 6.9 mph - N/A   Clear
1:15 PM 92.1 °F 95.3 °F 66.7 °F 43% 30.00 in 10.0 mi ESE 6.9 mph - N/A   Clear
1:35 PM 92.7 °F 96.2 °F 66.9 °F 43% 29.99 in 10.0 mi ESE 6.9 mph - N/A   Clear
1:55 PM 93.4 °F 96.1 °F 65.8 °F 40% 29.99 in 10.0 mi East 3.5 mph - N/A   Clear
2:15 PM 94.8 °F 97.6 °F 65.5 °F 38% 29.98 in 10.0 mi SE 8.1 mph - N/A   Clear
2:35 PM 94.5 °F 97.5 °F 65.8 °F 39% 29.98 in 10.0 mi East 4.6 mph - N/A   Clear
2:55 PM 95.7 °F 98.2 °F 64.6 °F 36% 29.97 in 10.0 mi ESE 5.8 mph - N/A   Clear
3:15 PM 95.2 °F 97.3 °F 64.6 °F 36% 29.97 in 10.0 mi ESE 3.5 mph - N/A   Clear
3:35 PM 95.7 °F 98.7 °F 65.7 °F 37% 29.97 in 10.0 mi ENE 6.9 mph - N/A   Clear
3:55 PM 96.1 °F 98.8 °F 65.1 °F 36% 29.96 in 10.0 mi Calm Calm - N/A   Clear
4:15 PM 96.4 °F 99.4 °F 65.5 °F 36% 29.96 in 10.0 mi SSE 5.8 mph - N/A   Clear
4:35 PM 96.8 °F 99.0 °F 64.2 °F 34% 29.95 in 10.0 mi ENE 3.5 mph - N/A   Clear
4:55 PM 97.3 °F 100.0 °F 64.8 °F 34% 29.95 in 10.0 mi East 8.1 mph - N/A   Clear
5:15 PM 97.0 °F 99.9 °F 64.8 °F 35% 29.94 in 10.0 mi ESE 8.1 mph - N/A   Clear
5:35 PM 96.8 °F 98.5 °F 63.0 °F 33% 29.94 in 10.0 mi East 5.8 mph - N/A   Clear
5:55 PM 96.8 °F 98.5 °F 63.7 °F 33% 29.94 in 10.0 mi ENE 6.9 mph - N/A   Clear
6:15 PM 96.4 °F 98.9 °F 64.6 °F 35% 29.93 in 10.0 mi East 3.5 mph - N/A   Clear
6:35 PM 95.9 °F 97.5 °F 63.5 °F 34% 29.94 in 10.0 mi East 8.1 mph - N/A   Clear
6:55 PM 95.5 °F 96.9 °F 63.3 °F 34% 29.93 in 10.0 mi East 6.9 mph - N/A   Clear
7:15 PM 95.0 °F 97.0 °F 64.0 °F 36% 29.93 in 10.0 mi East 6.9 mph - N/A   Clear
7:35 PM 94.1 °F 96.9 °F 65.5 °F 39% 29.94 in 10.0 mi East 6.9 mph - N/A   Clear
7:55 PM 92.5 °F 95.9 °F 67.3 °F 43% 29.94 in 10.0 mi East 5.8 mph - N/A   Clear
8:15 PM 90.5 °F 94.6 °F 68.5 °F 48% 29.94 in 10.0 mi East 5.8 mph - N/A   Clear
8:35 PM 88.7 °F 93.0 °F 69.1 °F 52% 29.94 in 10.0 mi East 5.8 mph - N/A   Clear
8:55 PM 87.4 °F 92.3 °F 69.8 °F 56% 29.94 in 10.0 mi East 6.9 mph - N/A   Clear
9:15 PM 86.5 °F 91.4 °F 70.0 °F 58% 29.94 in 10.0 mi East 5.8 mph - N/A   Clear
9:35 PM 85.3 °F 90.1 °F 70.3 °F 61% 29.94 in 10.0 mi East 5.8 mph - N/A   Clear
9:55 PM 84.2 °F 89.0 °F 70.7 °F 64% 29.95 in 10.0 mi East 4.6 mph - N/A   Clear
10:15 PM 83.3 °F 87.9 °F 70.9 °F 66% 29.96 in 10.0 mi East 5.8 mph - N/A   Clear
10:35 PM 82.4 °F 87.0 °F 71.2 °F 69% 29.96 in 10.0 mi East 5.8 mph - N/A   Clear
10:55 PM 81.7 °F 85.8 °F 71.1 °F 70% 29.96 in 10.0 mi East 5.8 mph - N/A   Clear
11:15 PM 81.5 °F 85.5 °F 71.1 °F 70% 29.97 in 10.0 mi East 4.6 mph - N/A   Clear
11:35 PM 80.8 °F 84.4 °F 70.7 °F 71% 29.98 in 10.0 mi East 5.8 mph - N/A   Clear
11:55 PM 80.2 °F 83.7 °F 70.7 °F 73% 29.98 in 10.0 mi East 5.8 mph - N/A   Clear